This demonstration page uses our WeatherBlox Daily Observations layout. Learn more.

Left ArrowRight Arrow

Hourly Observations for March 11, 2022

Temp ( °F °C ) Dew Point ( °F °C ) Humidity (%) Winds ( mph kmh ) Pressure ( in mb ) Visibility ( mi km ) Precip ( " mm )
12:15 am 00:15 Clear 12 -11 5 -15 73 73 W 12 19 30.44 1031 10 16 0.00 0.00
12:35 am 00:35 Clear 12 -11 5 -15 73 73 W 9 15 30.44 1031 10 16 0.00 0.00
12:55 am 00:55 Clear 10 -12 3 -16 72 72 W 6 9 30.45 1031 10 16 0.00 0.00
1:15 am 01:15 Clear 12 -11 5 -15 73 73 WNW 10 17 30.43 1031 10 16 0.00 0.00
1:35 am 01:35 Clear 12 -11 5 -15 73 73 WNW 12 19 30.43 1031 10 16 0.00 0.00
1:55 am 01:55 Clear 10 -12 5 -15 79 79 WNW 14 22 30.44 1031 10 16 0.00 0.00
2:15 am 02:15 Clear 10 -12 3 -16 72 72 WNW 12 19 30.44 1031 10 16 0.00 0.00
2:35 am 02:35 Clear 10 -12 3 -16 72 72 NW 14 22 30.44 1031 10 16 0.00 0.00
2:55 am 02:55 Clear 10 -12 3 -16 72 72 NW 17 28 30.44 1031 10 16 0.00 0.00
3:15 am 03:15 Clear 10 -12 3 -16 72 72 NW 14 22 30.45 1031 10 16 0.00 0.00
3:35 am 03:35 Clear 10 -12 3 -16 72 72 NW 16 26 30.45 1031 10 16 0.00 0.00
3:55 am 03:55 Clear 10 -12 3 -16 72 72 NW 14 22 30.45 1031 10 16 0.00 0.00
4:15 am 04:15 Clear 10 -12 1 -17 67 67 NW 12 19 30.45 1031 10 16 0.00 0.00
4:35 am 04:35 Clear 10 -12 1 -17 67 67 NW 10 17 30.46 1032 10 16 0.00 0.00
4:55 am 04:55 Clear 10 -12 1 -17 67 67 NW 13 20 30.46 1032 10 16 0.00 0.00
5:15 am 05:15 Clear 10 -12 1 -17 67 67 NW 14 22 30.46 1032 10 16 0.00 0.00
5:35 am 05:35 Clear 10 -12 1 -17 67 67 NNW 14 22 30.46 1032 10 16 0.00 0.00
5:55 am 05:55 Clear 10 -12 1 -17 67 67 NW 14 22 30.46 1032 10 16 0.00 0.00
6:15 am 06:15 Clear 10 -12 1 -17 67 67 NW 14 22 30.46 1032 10 16 0.00 0.00
6:35 am 06:35 Clear 10 -12 1 -17 67 67 NW 16 26 30.47 1032 10 16 0.00 0.00
6:55 am 06:55 Clear 10 -12 1 -17 67 67 WNW 14 22 30.47 1032 10 16 0.00 0.00
7:15 am 07:15 Sunny 10 -12 1 -17 67 67 W 10 17 30.47 1032 10 16 0.00 0.00
7:35 am 07:35 Sunny 10 -12 1 -17 67 67 W 10 17 30.48 1032 10 16 0.00 0.00
7:55 am 07:55 Sunny 10 -12 1 -17 67 67 WNW 10 17 30.50 1033 10 16 0.00 0.00
8:15 am 08:15 Sunny 14 -10 5 -15 67 67 WNW 12 19 30.48 1032 10 16 0.00 0.00
8:35 am 08:35 Sunny 16 -9 5 -15 62 62 WNW 10 17 30.47 1032 10 16 0.00 0.00
9:15 am 09:15 Sunny 19 -7 9 -13 63 63 WNW 13 20 30.46 1031 10 16 0.00 0.00
9:35 am 09:35 Sunny 19 -7 9 -13 63 63 NW 12 19 30.47 1032 10 16 0.00 0.00
9:55 am 09:55 Sunny 21 -6 9 -13 58 58 WNW 13 20 30.46 1031 10 16 0.00 0.00
10:15 am 10:15 Sunny 23 -5 10 -12 58 58 WNW 12 19 30.46 1031 10 16 0.00 0.00
10:35 am 10:35 Sunny 25 -4 12 -11 59 59 WNW 12 19 30.45 1031 10 16 0.00 0.00
10:55 am 10:55 Sunny 27 -3 14 -10 59 59 WNW 9 15 30.45 1031 10 16 0.00 0.00
11:15 am 11:15 Sunny 28 -2 14 -10 55 55 NW 10 17 30.44 1031 10 16 0.00 0.00
11:35 am 11:35 Sunny 30 -1 16 -9 55 55 NW 13 20 30.43 1030 10 16 0.00 0.00
11:55 am 11:55 Sunny 30 -1 14 -10 51 51 NW 12 19 30.42 1030 10 16 0.00 0.00
12:15 pm 12:15 Sunny 30 -1 18 -8 59 59 NW 15 24 30.42 1030 10 16 0.00 0.00
12:35 pm 12:35 Sunny 32 0 18 -8 55 55 WNW 10 17 30.41 1030 10 16 0.00 0.00
12:55 pm 12:55 Sunny 32 0 18 -8 55 55 NW 13 20 30.40 1029 10 16 0.00 0.00
1:15 pm 13:15 Sunny 32 0 18 -8 55 55 NW 13 20 30.39 1029 10 16 0.00 0.00
1:35 pm 13:35 Sunny 32 0 18 -8 55 55 WNW 12 19 30.38 1029 10 16 0.00 0.00
1:55 pm 13:55 Sunny 32 0 19 -7 60 60 WNW 13 20 30.38 1029 10 16 0.00 0.00
2:15 pm 14:15 Sunny 34 1 19 -7 56 56 WNW 13 20 30.36 1028 10 16 0.00 0.00
2:35 pm 14:35 Sunny 34 1 19 -7 56 56 WNW 15 24 30.36 1028 10 16 0.00 0.00
2:55 pm 14:55 Sunny 34 1 18 -8 51 51 WNW 14 22 30.36 1028 10 16 0.00 0.00
3:15 pm 15:15 Sunny 34 1 18 -8 51 51 NW 14 22 30.36 1028 10 16 0.00 0.00
3:35 pm 15:35 Sunny 34 1 18 -8 51 51 NNW 13 20 30.35 1028 10 16 0.00 0.00
3:55 pm 15:55 Sunny 34 1 18 -8 51 51 NW 14 22 30.35 1028 10 16 0.00 0.00
4:15 pm 16:15 Sunny 34 1 18 -8 51 51 NW 14 22 30.35 1028 10 16 0.00 0.00
4:35 pm 16:35 Sunny 34 1 18 -8 51 51 NW 13 20 30.35 1028 10 16 0.00 0.00
4:55 pm 16:55 Sunny 34 1 18 -8 51 51 NW 12 19 30.35 1028 10 16 0.00 0.00
5:15 pm 17:15 Sunny 34 1 18 -8 51 51 NW 9 15 30.35 1028 10 16 0.00 0.00
5:35 pm 17:35 Sunny 34 1 18 -8 51 51 NW 10 17 30.35 1028 10 16 0.00 0.00
5:55 pm 17:55 Sunny 34 1 19 -7 56 56 NW 9 15 30.36 1028 10 16 0.00 0.00
6:15 pm 18:15 Sunny 32 0 19 -7 60 60 N 9 15 30.38 1029 10 16 0.00 0.00
6:35 pm 18:35 Sunny 30 -1 19 -7 64 64 N 6 9 30.39 1029 10 16 0.00 0.00
6:55 pm 18:55 Clear 27 -3 18 -8 69 69 NNE 5 7 30.41 1030 10 16 0.00 0.00
7:15 pm 19:15 Clear 27 -3 19 -7 74 74 NE 6 9 30.42 1030 10 16 0.00 0.00
7:35 pm 19:35 Clear 25 -4 18 -8 74 74 NE 7 11 30.44 1031 10 16 0.00 0.00
7:55 pm 19:55 Clear 23 -5 16 -9 74 74 ENE 5 7 30.46 1031 10 16 0.00 0.00
8:15 pm 20:15 Clear 21 -6 14 -10 74 74 ENE 6 9 30.48 1032 10 16 0.00 0.00
8:35 pm 20:35 Clear 21 -6 14 -10 74 74 ENE 6 9 30.49 1032 10 16 0.00 0.00
8:55 pm 20:55 Clear 19 -7 14 -10 79 79 ENE 6 9 30.51 1033 10 16 0.00 0.00
9:15 pm 21:15 Clear 18 -8 12 -11 79 79 Calm 30.52 1034 10 16 0.00 0.00
9:35 pm 21:35 Clear 19 -7 14 -10 79 79 E 3 6 30.51 1033 10 16 0.00 0.00
9:55 pm 21:55 Clear 18 -8 12 -11 79 79 ENE 3 6 30.52 1034 10 16 0.00 0.00
10:15 pm 22:15 Clear 14 -10 10 -12 85 85 Calm 30.55 1035 10 16 0.00 0.00
10:35 pm 22:35 Clear 16 -9 12 -11 86 86 Calm 30.54 1034 10 16 0.00 0.00
10:55 pm 22:55 Clear 14 -10 12 -11 92 92 Calm 30.55 1035 10 16 0.00 0.00
11:15 pm 23:15 Clear 12 -11 9 -13 85 85 Calm 30.56 1035 10 16 0.00 0.00
11:35 pm 23:35 Clear 18 -8 12 -11 79 79 Calm 30.53 1034 10 16 0.00 0.00
11:55 pm 23:55 Clear 12 -11 9 -13 85 85 Calm 30.56 1035 10 16 0.00 0.00

Powered by AerisWeather